CW9688 Weather Reports


Display with metric or nautical units.
time (UTC)temp
F
wind
direction
speed
MPH
gust
MPH
rain 1hr
in
rain 24hr
in
rain mn
in
humidity
%
barometer
mb
20260508214304 69 335 3.0 6.0 0.00 0.01 0.00 37 1008.9
20260508212804 71 344 5.0 10.0 0.00 0.01 0.00 37 1008.9
20260508211304 70 8 4.0 8.0 0.00 0.01 0.00 38 1008.9
20260508210804 69 346 5.0 9.0 0.00 0.01 0.00 37 1008.9
20260508204804 68 0 4.0 10.0 0.00 0.01 0.00 37 1008.9
20260508204304 69 4 5.0 8.0 0.00 0.01 0.00 40 1008.9
20260508202805 68 2 3.0 9.0 0.00 0.01 0.00 39 1009.2
20260508202307 67 48 6.0 12.0 0.00 0.01 0.00 39 1009.2
20260508201804 68 29 2.0 9.0 0.00 0.01 0.00 39 1009.2
20260508201304 67 342 6.0 9.0 0.00 0.01 0.00 39 1009.2
20260508195306 66 42 5.0 7.0 0.00 0.01 0.00 39 1009.2
20260508194303 67 35 5.0 9.0 0.00 0.01 0.00 39 1009.2
20260508193304 67 329 5.0 10.0 0.00 0.01 0.00 41 1009.2
20260508192306 65 156 3.0 7.0 0.00 0.01 0.00 42 1009.2
20260508190804 65 0 8.0 12.0 0.00 0.01 0.00 45 1009.2
20260508184804 65 52 6.0 10.0 0.00 0.01 0.00 44 1009.2
20260508183804 63 0 6.0 12.0 0.00 0.01 0.00 47 1009.2
20260508183304 62 38 3.0 12.0 0.00 0.01 0.00 47 1009.2
20260508182804 64 34 5.0 12.0 0.00 0.01 0.00 44 1009.2
20260508182306 64 32 8.0 12.0 0.00 0.01 0.00 46 1009.2
20260508181304 62 52 7.0 10.0 0.00 0.01 0.00 46 1009.2
20260508180304 63 298 6.0 12.0 0.00 0.01 0.00 48 1009.2
20260508175804 62 6 6.0 12.0 0.00 0.01 0.00 46 1009.2
20260508175306 62 13 6.0 10.0 0.00 0.01 0.00 48 1009.2
20260508174804 61 5 9.0 13.0 0.00 0.01 0.00 47 1009.2
20260508172804 61 7 6.0 12.0 0.00 0.01 0.00 50 1009.2
20260508171804 60 12 10.0 14.0 0.00 0.01 0.00 49 1009.2
20260508164804 60 14 5.0 12.0 0.00 0.01 0.00 51 1009.2
20260508163804 59 67 6.0 12.0 0.00 0.01 0.00 51 1009.2
20260508162306 59 97 4.0 9.0 0.00 0.01 0.00 51 1009.2
20260508161804 59 86 5.0 12.0 0.00 0.01 0.00 51 1009.2
20260508155804 57 58 5.0 9.0 0.00 0.01 0.00 56 1009.2
20260508154305 57 194 3.0 7.0 0.00 0.01 0.00 55 1009.2
20260508153804 57 152 3.0 7.0 0.00 0.01 0.00 57 1009.2
20260508153304 56 173 1.0 5.0 0.00 0.01 0.00 59 1009.2
20260508152306 55 157 2.0 5.0 0.00 0.01 0.00 62 1009.2
20260508151304 56 177 5.0 7.0 0.00 0.01 0.00 63 1009.2
20260508144804 54 211 4.0 7.0 0.00 0.01 0.00 66 1009.2
20260508144304 53 195 4.0 6.0 0.00 0.01 0.00 69 1009.2
20260508143804 53 179 5.0 7.0 0.00 0.01 0.00 72 1009.2
20260508143304 52 195 5.0 6.0 0.00 0.01 0.00 72 1009.2
20260508142804 51 172 5.0 9.0 0.00 0.01 0.00 74 1009.2
20260508141804 51 191 5.0 10.0 0.00 0.01 0.00 77 1009.2
20260508141304 50 185 3.0 9.0 0.00 0.01 0.00 79 1009.2
20260508140804 50 207 3.0 7.0 0.00 0.01 0.00 80 1009.2
20260508140304 50 203 5.0 10.0 0.00 0.01 0.00 80 1009.2
20260508135804 49 209 5.0 8.0 0.00 0.01 0.00 84 1009.2
20260508135306 48 190 3.0 7.0 0.00 0.01 0.00 84 1009.2
20260508134304 47 219 2.0 5.0 0.00 0.01 0.00 85 1009.2
20260508132306 46 184 0.0 1.0 0.00 0.01 0.00 86 1009.2
20260508131804 46 184 1.0 3.0 0.00 0.01 0.00 87 1009.2
20260508125804 46 183 2.0 3.0 0.00 0.01 0.00 88 1009.2
20260508124304 45 295 1.0 3.0 0.00 0.01 0.00 90 1009.2
20260508123804 45 0 2.0 3.0 0.00 0.01 0.00 90 1009.2
20260508121804 45 282 4.0 6.0 0.00 0.01 0.00 91 1009.2
20260508121304 44 340 3.0 5.0 0.00 0.01 0.00 93 1009.2
20260508120304 43 43 0.0 2.0 0.00 0.01 0.00 93 1009.2
20260508115306 43 43 0.0 1.0 0.00 0.01 0.00 93 1009.2
20260508114804 43 43 0.0 2.0 0.00 0.01 0.00 93 1009.2
20260508114304 42 43 0.0 2.0 0.00 0.01 0.00 93 1009.2
20260508112307 42 43 1.0 2.0 0.00 0.01 0.00 93 1009.2
20260508104803 43 43 0.0 1.0 0.00 0.01 0.00 92 1009.2
20260508103804 43 43 1.0 2.0 0.00 0.01 0.00 92 1009.2
20260508103303 43 44 0.0 0.0 0.00 0.01 0.00 91 1009.2
20260508102804 44 43 0.0 3.0 0.00 0.01 0.00 92 1009.2
20260508101304 44 0 0.0 3.0 0.00 0.01 0.00 92 1009.2
20260508095804 44 201 1.0 2.0 0.00 0.01 0.00 92 1009.2
20260508093304 44 201 0.0 3.0 0.00 0.01 0.00 92 1009.2
20260508092312 44 50 0.0 2.0 0.00 0.01 0.00 92 1009.2
20260508091804 44 50 1.0 2.0 0.00 0.01 0.00 91 1009.2
20260508090804 44 50 1.0 2.0 0.00 0.01 0.00 91 1009.2
20260508090304 44 50 0.0 0.0 0.00 0.01 0.00 91 1009.2
20260508085306 45 50 0.0 0.0 0.00 0.01 0.00 90 1009.2
20260508084304 45 50 0.0 1.0 0.00 0.01 0.00 90 1009.2
20260508083803 46 50 1.0 2.0 0.00 0.01 0.00 90 1009.2
20260508083304 46 50 0.0 3.0 0.00 0.01 0.00 90 1009.2
20260508082804 46 1 1.0 3.0 0.00 0.01 0.00 90 1009.2
20260508075803 46 315 3.0 5.0 0.00 0.01 0.00 90 1009.2
20260508074804 46 152 1.0 2.0 0.00 0.01 0.00 90 1009.2
20260508074304 46 152 1.0 2.0 0.00 0.01 0.00 90 1009.2
20260508072804 46 152 0.0 2.0 0.00 0.01 0.00 89 1009.2
20260508071304 47 152 0.0 2.0 0.00 0.01 0.00 86 1009.2
20260508070804 47 152 0.0 2.0 0.00 0.01 0.00 86 1009.2
20260508065306 48 152 3.0 3.0 0.00 0.01 0.00 85 1009.2
20260508064804 49 33 1.0 3.0 0.00 0.01 0.00 84 1009.2
20260508064304 49 33 0.0 2.0 0.00 0.01 0.00 83 1009.2
20260508063304 50 33 0.0 2.0 0.00 0.01 0.00 80 1009.2
20260508062803 51 31 2.0 5.0 0.00 0.01 0.00 79 1009.2
20260508062306 51 56 4.0 6.0 0.00 0.01 0.00 80 1009.2
20260508055306 54 306 6.0 13.0 0.00 0.00 0.00 64 1009.2
20260508053304 54 55 2.0 6.0 0.00 0.00 0.00 61 1009.2
20260508050804 55 53 2.0 6.0 0.00 0.00 0.00 59 1009.2
20260508044804 55 98 4.0 7.0 0.00 0.00 0.00 57 1009.2
20260508044304 56 84 4.0 9.0 0.00 0.00 0.00 58 1009.2
20260508043304 55 61 3.0 5.0 0.00 0.00 0.00 59 1009.2
20260508041304 56 1 4.0 6.0 0.00 0.00 0.00 57 1009.2
20260508034804 56 34 4.0 8.0 0.00 0.00 0.00 56 1009.2
20260508032306 59 50 6.0 14.0 0.00 0.00 0.00 46 1011.3
20260508030804 60 14 3.0 7.0 0.00 0.00 0.00 42 1011.3
20260508024804 61 134 1.0 2.0 0.00 0.00 0.00 40 1011.3
20260508023304 61 180 1.0 5.0 0.00 0.00 0.00 39 1011.3
20260508021804 61 144 1.0 2.0 0.00 0.00 0.00 38 1011.3
20260508021304 61 150 1.0 2.0 0.00 0.00 0.00 38 1011.3
20260508014304 62 257 4.0 7.0 0.00 0.00 0.00 40 1011.3
20260508013804 63 324 1.0 2.0 0.00 0.00 0.00 39 1011.3
20260508012804 63 35 4.0 12.0 0.00 0.00 0.00 38 1011.3
20260508012307 64 26 3.0 9.0 0.00 0.00 0.00 37 1011.3
20260508011804 64 5 5.0 13.0 0.00 0.00 0.00 35 1011.3
20260508010804 66 30 7.0 12.0 0.00 0.00 0.00 29 1011.3
20260508010304 66 33 7.0 13.0 0.00 0.00 0.00 28 1011.3
20260508005804 66 2 5.0 12.0 0.00 0.00 0.00 27 1011.3
20260508005306 67 14 5.0 13.0 0.00 0.00 0.00 28 1011.3
20260508002804 68 179 0.0 2.0 0.00 0.00 0.00 24 1011.3
20260507234304 70 51 4.0 6.0 0.00 0.00 0.00 24 1011.3
20260507232803 71 295 7.0 13.0 0.00 0.00 0.00 23 1011.3
20260507231304 72 287 4.0 8.0 0.00 0.00 0.00 22 1011.3
20260507230804 71 325 5.0 9.0 0.00 0.00 0.00 25 1011.3
20260507225306 71 263 9.0 15.0 0.00 0.00 0.00 22 1011.3
20260507224804 71 307 9.0 14.0 0.00 0.00 0.00 23 1011.3
20260507223804 72 308 7.0 14.0 0.00 0.00 0.00 25 1011.3
20260507223304 72 277 7.0 15.0 0.00 0.00 0.00 25 1011.3
20260507222306 71 265 7.0 13.0 0.00 0.00 0.00 24 1011.3
20260507221303 71 277 7.0 15.0 0.00 0.00 0.00 26 1011.3
20260507220803 70 247 11.0 20.0 0.00 0.00 0.00 24 1011.3
20260507215803 71 271 12.0 21.0 0.00 0.00 0.00 23 1011.3
20260507214803 71 262 9.0 18.0 0.00 0.00 0.00 24 1011.3